Time,TemperatureF,DewpointF,PressureIn,WindDirection,WindDirectionDegrees,WindSpeedMPH,WindSpeedGustMPH,Humidity,HourlyPrecipIn,Conditions,Clouds,dailyrainin,SoftwareType,DateUTC
2014-01-09 00:13:00,29.0,15.0,-100.00,ENE,78,1.0,1.0,57,0.00,,,0.00,,2014-01-09 05:13:00,
2014-01-09 00:22:00,29.0,13.0,-100.00,North,359,1.0,2.0,50,0.00,,,0.00,,2014-01-09 05:22:00,
2014-01-09 00:43:00,30.0,14.0,-100.00,West,265,1.0,2.0,51,0.00,,,0.00,,2014-01-09 05:43:00,
2014-01-09 00:53:00,29.0,14.0,-100.00,WSW,243,0.0,0.0,52,0.00,,,0.00,,2014-01-09 05:53:00,
2014-01-09 01:12:00,30.0,13.0,-100.00,NE,49,1.0,1.0,49,0.00,,,0.00,,2014-01-09 06:12:00,
2014-01-09 01:23:00,30.0,12.0,-100.00,ENE,59,1.0,2.0,46,0.00,,,0.00,,2014-01-09 06:23:00,
2014-01-09 01:42:00,31.0,11.0,-100.00,ENE,78,1.0,2.0,43,0.00,,,0.00,,2014-01-09 06:42:00,
2014-01-09 01:52:00,32.0,18.0,-100.00,NNE,30,0.0,0.0,55,0.00,,,0.00,,2014-01-09 06:52:00,
2014-01-09 03:22:00,31.0,18.0,-100.00,NNE,21,0.0,1.0,58,0.00,,,0.00,,2014-01-09 08:22:00,
2014-01-09 03:42:00,32.0,18.0,-100.00,WNW,288,0.0,1.0,54,0.00,,,0.00,,2014-01-09 08:42:00,
2014-01-09 04:43:00,31.0,20.0,-100.00,NNW,333,0.0,2.0,62,0.00,,,0.00,,2014-01-09 09:43:00,
2014-01-09 04:53:00,32.0,18.0,-100.00,North,10,0.0,0.0,56,0.00,,,0.00,,2014-01-09 09:53:00,
2014-01-09 05:13:00,31.0,19.0,-100.00,SE,126,0.0,0.0,60,0.00,,,0.00,,2014-01-09 10:13:00,
2014-01-09 05:23:00,33.0,19.0,-100.00,ENE,66,2.0,2.0,58,0.00,,,0.00,,2014-01-09 10:23:00,
2014-01-09 09:11:00,32.0,14.0,-100.00,NE,55,3.0,7.0,48,0.00,,,0.00,,2014-01-09 14:11:00,
2014-01-09 09:22:00,32.0,19.0,-100.00,East,82,1.0,3.0,58,0.00,,,0.00,,2014-01-09 14:22:00,
2014-01-09 09:42:00,33.0,20.0,-100.00,NNW,342,0.0,1.0,56,0.00,,,0.00,,2014-01-09 14:42:00,
2014-01-09 11:13:00,39.0,23.0,-100.00,SSW,196,2.0,3.0,53,0.00,,,0.00,,2014-01-09 16:13:00,
2014-01-09 11:23:00,40.0,25.0,-100.00,SSE,147,2.0,3.0,53,0.00,,,0.00,,2014-01-09 16:23:00,
2014-01-09 13:22:00,43.0,21.0,-100.00,South,185,2.0,3.0,40,0.00,,,0.00,,2014-01-09 18:22:00,
2014-01-09 13:37:00,43.0,21.0,-100.00,South,185,2.0,3.0,40,0.00,,,0.00,,2014-01-09 18:37:00,
2014-01-09 19:42:00,41.0,24.0,-100.00,NNE,25,1.0,2.0,50,0.00,,,0.00,,2014-01-10 00:42:00,
2014-01-09 19:52:00,41.0,23.0,-100.00,NNW,339,2.0,2.0,48,0.00,,,0.00,,2014-01-10 00:52:00,
2014-01-09 20:11:00,41.0,24.0,-100.00,WSW,251,1.0,2.0,50,0.00,,,0.00,,2014-01-10 01:11:00,
2014-01-09 20:22:00,41.0,23.0,-100.00,NNW,330,1.0,2.0,49,0.00,,,0.00,,2014-01-10 01:22:00,
2014-01-09 20:42:00,41.0,25.0,-100.00,North,350,1.0,1.0,52,0.00,,,0.00,,2014-01-10 01:42:00,
2014-01-09 20:52:00,40.0,24.0,-100.00,NNW,337,2.0,3.0,51,0.00,,,0.00,,2014-01-10 01:52:00,
2014-01-09 21:11:00,40.0,24.0,-100.00,West,260,0.0,1.0,51,0.00,,,0.00,,2014-01-10 02:11:00,
2014-01-09 21:22:00,40.0,24.0,-100.00,West,260,0.0,1.0,51,0.00,,,0.00,,2014-01-10 02:22:00,
2014-01-09 21:52:00,40.0,23.0,-100.00,SE,137,1.0,2.0,49,0.00,,,0.00,,2014-01-10 02:52:00,
2014-01-09 22:02:00,40.0,23.0,-100.00,SE,137,1.0,2.0,49,0.00,,,0.00,,2014-01-10 03:02:00,
2014-01-09 22:11:00,40.0,23.0,-100.00,SE,137,1.0,2.0,49,0.00,,,0.00,,2014-01-10 03:11:00,
2014-01-09 22:22:00,42.0,22.0,-100.00,WSW,243,2.0,6.0,45,0.00,,,0.00,,2014-01-10 03:22:00,
2014-01-09 22:33:00,42.0,22.0,-100.00,WSW,243,2.0,6.0,45,0.00,,,0.00,,2014-01-10 03:33:00,